Theta_e
306 306 305 306 306 306 307 307 308 309 308 309 309 307 307 307 303 306 307 307 306 304 302 306 306 309 310 315 319 323 331 334 333 334 332 317 319 311 309 312 311 309 310 307 305
305 305 304 305 305 305 306 307 306 307 308 308 308 306 305 305 310 307 305 304 303 302 305 306 309 309 312 315 320 325 332 332 328 329 329 319 316 317 312 313 311 307 303 305 302
305 304 304 304 304 305 305 305 306 307 307 307 307 305 305 306 309 306 303 302 302 301 304 305 307 309 310 314 319 324 329 329 324 318 313 316 313 313 313 318 316 312 306 303 302
304 303 303 303 303 304 304 305 306 306 306 307 306 304 305 310 307 301 299 298 298 301 303 306 308 310 310 312 315 320 323 324 321 313 312 314 312 312 312 317 306 310 307 303 304
304 303 303 303 303 304 304 304 305 306 306 306 305 303 308 307 305 299 299 298 298 300 303 307 309 311 312 312 313 316 317 315 314 311 311 310 312 313 315 312 304 306 305 305 305
303 302 302 302 302 303 303 304 305 305 306 305 304 304 308 304 299 299 298 298 300 301 303 306 310 311 311 311 312 312 314 313 311 312 310 312 315 310 315 315 305 305 305 305 305
303 302 302 302 302 302 303 304 304 305 305 304 305 307 305 303 297 296 297 298 298 301 305 305 307 309 310 310 309 308 310 310 309 308 310 307 316 313 313 306 307 305 306 305 305
302 301 301 301 301 302 302 303 304 304 302 302 306 305 303 298 297 297 297 298 298 299 302 303 304 308 309 307 307 308 308 310 309 306 308 311 316 317 315 307 310 309 307 305 304
302 301 301 301 301 301 302 303 299 299 300 302 302 300 303 295 297 295 296 299 299 300 301 302 305 308 307 309 311 310 311 312 310 305 307 309 312 312 306 307 310 309 308 305 304
302 301 301 301 301 301 302 299 300 296 298 299 296 300 299 298 296 295 295 297 301 302 303 305 306 307 308 309 310 311 312 312 312 307 303 306 307 309 303 306 308 310 308 306 304
302 301 300 300 301 301 302 298 300 299 297 302 300 300 297 295 294 296 295 298 302 303 303 305 305 306 307 308 308 309 309 311 310 304 304 307 307 308 309 303 305 307 309 306 304
303 301 300 300 300 301 301 299 299 296 300 298 296 296 294 294 297 296 295 301 302 303 303 304 303 304 305 305 306 307 307 307 307 302 300 304 305 305 305 306 305 305 306 306 304
303 301 300 299 300 300 300 297 295 295 299 297 296 297 296 295 298 297 297 300 301 302 303 303 302 299 302 303 304 305 305 305 306 305 301 302 303 305 305 305 305 305 306 306 305
304 301 300 299 298 299 297 295 294 294 307 302 295 295 294 296 297 294 295 298 300 301 302 302 299 299 300 301 303 303 304 304 304 304 303 301 303 306 307 306 304 304 303 304 304
304 302 300 299 300 296 296 294 294 298 309 299 293 292 294 296 295 294 293 296 300 299 300 301 298 298 299 300 301 302 299 301 302 303 303 303 301 304 305 304 305 303 302 302 304
304 301 300 299 298 298 294 293 297 307 306 297 293 294 294 294 294 294 295 296 295 297 297 297 293 296 298 295 296 298 299 299 299 300 302 302 302 305 306 306 304 305 304 301 303
304 301 299 297 298 295 293 297 306 308 300 302 296 294 296 295 294 295 295 296 299 300 299 296 296 293 294 297 296 298 300 304 305 304 305 301 303 305 306 305 303 303 304 302 301
303 300 298 296 296 294 295 301 304 311 312 294 294 295 296 295 295 295 296 298 297 298 301 301 302 294 294 297 299 298 300 305 308 307 306 296 300 304 304 304 302 300 299 301 300
302 298 296 294 296 293 298 302 306 309 299 295 294 296 299 294 295 295 296 299 301 297 304 303 299 291 291 292 294 298 299 299 305 297 300 301 304 304 304 303 303 302 299 298 299
299 295 292 294 293 295 301 301 305 296 295 295 301 300 309 299 295 296 297 299 296 297 297 300 303 291 290 291 292 295 295 299 299 305 305 303 305 304 305 305 304 303 302 300 298
298 297 290 292 294 298 300 301 299 295 294 295 297 303 300 299 298 298 303 297 295 294 296 304 301 293 290 293 296 293 296 296 299 303 304 303 305 309 305 302 301 300 299 299 299
294 302 290 292 297 296 300 302 293 294 294 294 294 297 299 298 299 300 303 298 294 294 294 300 306 299 297 291 290 292 297 298 301 303 300 301 303 304 304 300 297 298 298 297 297
295 293 291 293 298 297 298 294 294 295 295 297 297 297 298 297 302 299 298 293 294 297 300 297 301 300 299 293 290 292 293 296 298 297 303 305 304 299 300 301 300 298 298 298 296
294 298 295 295 296 299 300 301 298 296 295 298 298 295 295 295 298 305 298 292 292 294 296 296 306 303 305 302 298 294 294 293 297 301 299 300 300 300 301 300 300 300 300 299 296
295 297 294 297 297 296 296 300 299 299 295 294 298 299 300 300 297 297 298 292 291 293 296 299 298 297 298 296 293 296 297 294 295 296 298 298 299 300 300 301 300 299 299 297 295
296 297 296 297 295 296 296 297 297 298 298 297 295 297 296 299 300 301 299 297 299 292 297 292 302 293 298 298 295 295 296 295 295 295 295 296 296 297 297 298 298 298 298 297 297
292 292 294 295 297 296 297 296 297 298 298 297 298 298 298 298 298 298 299 299 299 297 295 296 299 297 301 295 296 298 297 297 298 298 297 298 299 299 299 299 299 299 298 297 296
Wind_Speed
7 7 10 11 9 10 10 10 11 10 12 11 11 12 11 10 6 6 9 6 5 6 5 6 6 6 6 6 6 3 8 12 15 10 8 2 9 2 3 2 3 3 4 3 24
9 9 10 11 10 11 10 11 11 11 11 12 11 11 10 6 8 13 9 11 7 5 4 6 6 5 6 4 5 8 11 16 7 9 8 7 8 1 4 8 8 5 3 14 22
8 9 10 11 10 11 11 11 11 11 12 12 11 10 7 4 6 2 6 9 8 7 5 4 5 6 9 7 8 7 14 9 2 1 3 5 7 5 7 11 12 12 13 18 22
10 10 11 11 11 12 11 12 11 12 11 12 11 8 4 3 6 3 2 2 3 3 6 5 7 6 7 11 11 9 11 7 1 3 4 5 3 4 10 10 6 3 18 20 19
10 11 11 12 12 13 12 12 11 12 12 10 10 6 1 7 6 3 1 0 2 4 8 8 10 10 12 8 8 13 13 5 4 4 6 5 5 9 8 7 0 3 14 18 17
11 11 12 12 12 13 13 12 11 11 12 10 8 5 5 13 1 2 2 3 3 5 6 8 4 7 8 9 12 3 6 6 4 6 5 7 4 4 9 12 8 11 14 16 18
12 12 12 13 13 14 13 12 12 10 10 9 6 5 7 7 2 0 1 3 3 3 5 5 4 7 2 5 2 2 8 6 10 6 4 5 9 17 17 13 14 13 15 16 17
12 13 13 13 14 15 13 13 11 9 7 5 3 5 6 3 2 1 2 2 2 2 3 1 2 4 4 3 3 5 5 11 2 9 4 9 20 14 17 15 17 17 16 17 19
14 13 13 13 14 14 13 12 9 7 5 3 3 5 4 1 2 2 2 4 3 3 2 2 4 4 5 8 9 10 13 14 8 13 6 13 16 3 5 12 16 15 16 16 17
14 14 14 13 13 13 14 9 5 2 2 4 5 4 4 1 3 1 2 3 2 7 5 6 6 8 10 12 13 14 15 14 14 7 10 12 21 14 9 12 15 16 16 18 19
13 14 13 13 13 12 9 2 3 4 7 6 1 2 2 2 1 2 1 5 5 7 8 11 10 15 18 18 19 19 15 17 12 4 6 17 21 20 17 14 16 18 18 19 20
12 13 13 12 11 10 7 4 4 3 6 10 4 3 0 1 3 4 2 8 8 12 11 6 16 15 7 9 15 16 19 20 18 5 5 16 24 22 21 21 21 21 20 20 18
14 11 12 11 11 9 8 7 5 2 5 3 4 5 2 4 3 8 3 4 8 12 14 14 1 5 4 9 11 16 18 18 17 5 13 15 23 23 21 24 22 22 20 19 21
14 11 11 9 6 3 4 5 3 1 3 6 5 4 4 3 5 2 2 3 5 10 10 11 2 5 6 11 12 15 9 12 15 7 8 4 13 16 14 11 15 20 20 21 23
16 11 9 8 6 3 3 2 2 0 4 6 4 2 4 6 5 3 1 3 8 7 6 3 4 7 11 6 8 2 3 5 10 12 13 16 8 7 12 16 18 19 21 22 21
19 13 8 4 6 5 3 4 1 2 9 4 5 5 6 5 4 5 3 2 3 3 4 2 1 3 1 3 0 3 2 2 4 6 8 15 15 19 15 14 15 14 18 20 21
22 17 12 6 1 3 3 2 2 6 1 4 4 7 9 7 6 7 8 10 7 6 10 5 7 4 2 4 2 7 6 3 4 5 8 1 11 19 11 18 9 11 11 12 17
21 17 11 11 2 3 3 2 7 1 2 1 3 6 6 9 5 8 7 8 12 6 2 7 6 10 9 3 4 13 7 5 7 8 10 3 8 6 8 14 10 9 9 8 13
25 15 6 3 7 7 3 6 6 2 4 8 5 5 5 5 3 8 10 6 6 14 9 6 4 3 1 1 2 7 7 3 5 2 5 9 16 8 14 15 12 10 6 9 10
19 10 3 3 6 6 2 17 5 1 1 4 7 8 8 7 8 10 11 5 5 10 3 1 2 0 4 2 3 2 3 3 4 5 8 8 8 10 12 13 6 8 7 9 11
9 2 1 9 4 1 8 9 8 2 2 4 4 2 3 6 8 6 3 3 3 7 6 1 0 4 2 9 10 5 5 5 3 5 5 8 6 3 5 6 9 11 11 12 8
4 3 4 15 3 2 10 4 6 3 2 3 2 4 6 6 7 8 7 4 6 8 10 4 1 4 6 4 2 3 6 10 5 6 6 6 11 10 12 4 4 7 4 7 6
2 1 2 5 5 6 5 6 5 6 6 0 3 6 6 6 4 7 6 3 9 7 5 8 3 4 4 1 1 5 7 8 8 4 14 8 7 2 2 5 4 3 5 6 1
1 2 1 1 3 4 10 8 10 10 9 6 4 4 5 7 8 2 4 2 5 3 4 5 4 6 10 4 3 4 6 12 10 7 12 21 24 21 20 20 21 21 21 12 4
2 2 1 1 3 7 7 5 7 8 4 4 5 19 14 7 3 6 6 3 1 4 4 2 5 4 10 13 6 7 8 11 15 20 13 21 25 19 15 14 16 17 17 8 7
3 2 2 3 4 6 5 4 11 8 4 6 13 10 12 16 15 1 6 6 6 2 6 2 7 2 5 12 12 15 16 13 21 22 24 25 36 23 23 22 24 25 22 18 13
3 3 2 4 3 3 5 3 3 3 8 13 9 5 12 17 11 14 7 9 8 7 10 7 5 4 7 2 8 14 20 24 21 19 23 22 35 20 23 23 23 22 18 16 15
Wind_Direction
300 310 313 308 306 300 305 308 307 309 310 311 311 311 309 304 284 241 243 234 224 264 303 289 270 236 242 227 221 255 249 250 255 279 272 67 218 134 1 174 191 156 333 67 153
301 311 311 308 311 304 304 302 305 309 309 311 310 313 311 308 283 252 236 235 243 272 292 272 245 223 226 234 212 217 241 254 314 217 243 215 240 195 238 203 212 188 126 142 155
303 300 304 309 313 307 303 301 307 308 309 308 313 307 303 314 273 202 232 235 249 249 254 266 261 236 237 229 211 218 244 281 185 85 313 242 248 180 232 239 231 216 168 162 169
291 300 303 308 306 307 304 303 305 307 307 310 305 296 265 261 252 112 182 219 226 206 217 216 222 218 244 221 220 245 247 259 148 150 92 285 304 232 225 256 344 12 162 172 180
288 296 300 303 307 308 305 303 303 304 303 304 300 277 221 221 253 177 205 111 149 188 219 225 232 234 244 242 227 245 251 217 201 204 209 210 235 273 241 252 298 221 163 183 188
287 294 301 301 306 307 302 295 298 301 305 305 297 245 243 242 171 198 232 181 187 211 214 218 251 260 282 254 236 8 259 257 233 215 238 239 228 264 246 210 209 177 186 192 196
282 288 297 301 306 306 297 297 299 306 304 306 281 217 242 255 162 335 245 196 191 235 227 215 248 230 293 236 205 270 263 235 229 208 236 243 247 226 241 177 203 202 190 195 201
279 289 296 301 304 307 300 300 302 300 299 295 232 219 262 209 203 208 328 202 215 213 241 206 234 252 257 122 193 236 247 255 151 172 191 207 258 249 202 191 211 204 197 196 200
281 284 288 295 300 306 299 298 288 281 261 248 234 234 242 141 191 218 209 232 170 177 182 151 192 231 182 225 241 214 258 229 251 204 179 197 263 196 174 213 225 210 207 198 198
269 280 286 292 302 308 305 291 264 263 194 214 251 234 187 163 138 163 194 177 187 160 160 194 209 217 219 214 230 239 234 260 251 182 218 225 249 253 201 223 233 221 214 206 205
280 277 280 289 302 308 322 279 203 204 220 219 265 318 119 89 117 153 148 176 175 210 205 201 216 218 225 228 250 274 278 267 273 117 255 241 254 258 248 213 228 228 220 214 211
266 271 275 282 297 301 290 246 355 343 280 216 233 236 204 107 184 168 181 198 198 210 203 191 231 239 243 282 244 254 256 261 270 167 222 275 270 265 256 243 226 229 221 216 209
249 265 272 283 298 284 237 249 300 341 261 175 209 219 159 197 243 167 213 209 217 217 206 229 120 62 202 231 236 242 250 259 264 277 238 276 275 258 249 237 236 226 230 217 208
244 249 272 283 289 261 237 245 242 41 290 197 205 170 162 188 224 147 215 253 202 226 220 244 142 178 199 234 226 253 258 257 264 256 263 169 290 285 293 237 227 227 223 221 206
236 237 256 254 307 232 331 206 163 292 266 100 152 87 149 206 121 147 148 194 211 183 190 188 192 200 225 241 188 270 12 250 262 258 276 255 263 284 258 256 239 228 226 221 212
224 221 222 246 248 277 305 160 171 148 243 145 134 166 161 191 152 128 168 113 13 170 235 315 56 246 46 87 18 104 139 193 234 258 253 242 239 276 256 254 248 250 229 221 214
207 203 193 196 266 284 149 181 156 218 63 176 179 180 206 172 175 191 175 183 184 165 212 176 206 142 202 162 151 200 189 227 235 211 251 320 243 246 299 292 256 265 277 213 210
192 179 188 176 209 164 127 145 225 323 224 65 136 162 201 160 187 186 181 210 221 230 166 201 219 182 163 243 200 193 218 237 255 246 283 115 240 254 251 285 277 274 277 266 207
165 165 144 156 189 167 198 207 224 200 128 163 154 184 203 212 215 185 209 215 202 196 207 189 182 123 68 343 305 161 215 14 311 152 270 247 253 256 249 262 276 273 272 255 240
151 125 61 113 153 181 183 224 238 349 118 189 224 206 189 184 191 199 192 189 203 200 51 256 188 26 110 206 199 280 344 169 211 248 252 248 261 254 279 277 20 15 311 258 235
120 106 81 135 118 163 218 227 247 226 219 224 289 234 227 179 198 205 203 177 201 162 149 72 269 112 160 202 190 172 211 221 290 251 263 284 266 11 344 35 344 338 328 327 271
118 187 156 134 142 190 237 223 8 278 160 275 265 285 210 173 201 217 219 218 164 162 157 174 112 227 209 96 8 338 236 193 224 209 239 286 258 290 291 320 294 297 298 356 327
23 87 177 164 181 208 240 290 279 282 270 192 268 234 265 232 242 200 198 125 166 178 165 167 202 227 197 188 22 222 208 231 257 296 246 264 250 137 214 308 270 283 4 346 306
338 357 24 280 359 276 217 235 233 228 252 211 228 313 252 254 240 247 237 143 192 197 146 166 183 243 247 57 76 204 215 224 222 248 263 242 270 270 283 291 295 304 300 324 229
32 67 21 231 256 269 322 331 244 231 232 276 244 226 231 242 218 221 208 133 167 188 176 206 229 217 260 268 226 241 222 204 216 233 245 270 272 272 281 289 295 296 293 295 240
349 336 194 232 214 258 227 265 260 283 235 224 234 253 237 242 247 278 255 187 238 173 203 68 218 124 263 256 244 254 244 233 242 240 257 265 270 265 273 275 271 273 273 275 267
352 317 283 280 229 242 201 232 300 328 224 240 266 288 239 247 261 272 274 262 246 183 187 168 198 181 252 346 290 270 242 228 243 240 238 252 258 282 274 269 267 275 277 275 272